Flag for Panama Weather past 2 weeks in Panama, Panama

Now
81 °F

Passing clouds.


Feels Like: 86 °F
Forecast: 80 / 89 °F
Wind: No wind

Location: Panama Airport

Current Time: Aug 30, 2015 at 3:18:40 AM

Latest Report: Aug 30, 2015 at 3:00 AM


Visibility: N/A

Pressure: 29.77 "Hg

Humidity: 84%

Dew point: 75 °F

Location of PanamaLocation

Historic Weather in Panama — Graph

°F

Panama temperature yesterday

Maximum temperature yesterday: 93 °F (at 1:00 PM)
Minimum temperature yesterday: 77 °F (at 1:00 AM)
Average temperature yesterday: 84 °F

Past Weeks' High & Low Weather Summary

 TemperatureHumidityPressure
High95 °F (Aug 18, 2:00 PM)100% (Aug 16, 5:00 AM)29.92 "Hg (Aug 16, 5:00 AM)
Low75 °F (Aug 22, 4:00 AM)47% (Aug 18, 2:00 PM)29.71 "Hg (Aug 20, 4:00 PM)
Average82 °F84%29.81 "Hg
* Reported Aug 15 2:00 AM — Aug 30 2:00 AM, Panama, Weather by CustomWeather, © 2015

Note: Actual official high and low records may vary slightly from our data, if they occured in-between our weather recording intervals... More about our weather records

Advertising

Panama weather history for previous 24 hours

 ConditionsComfort  
Time TempWeatherWind HumidityBarometerVisibility
2:00 AM
Sun, Aug 30
81 °FPassing clouds.No wind89%29.77 "HgN/A
1:00 AM81 °FPassing clouds.No wind89%29.77 "HgN/A
12:00 AM82 °FPassing clouds.No wind84%29.80 "HgN/A
11:00 PM
Sat, Aug 29
81 °FPassing clouds.6 mph89%29.83 "HgN/A
10:00 PM82 °FPassing clouds.No wind84%29.80 "HgN/A
9:00 PM82 °FPassing clouds.No wind84%29.77 "HgN/A
8:00 PM84 °FPassing clouds.No wind79%29.77 "HgN/A
7:00 PM88 °FPassing clouds.No wind70%29.74 "HgN/A
6:00 PM88 °FPassing clouds.No wind75%29.71 "HgN/A
5:00 PM90 °FScattered clouds.No wind71%29.71 "HgN/A
4:00 PM86 °FScattered clouds.No wind79%29.71 "HgN/A
3:00 PM88 °FScattered showers. Scattered clouds.7 mph70%29.71 "Hg6 mi
2:00 PM91 °FScattered clouds.9 mph63%29.74 "HgN/A
1:00 PM93 °FScattered clouds.No wind56%29.77 "HgN/A
12:00 PM91 °FScattered clouds.No wind59%29.83 "HgN/A
11:00 AM91 °FScattered clouds.No wind59%29.83 "HgN/A
10:00 AM91 °FPassing clouds.No wind59%29.83 "HgN/A
9:00 AM88 °FScattered clouds.No wind70%29.83 "HgN/A
8:00 AM81 °FPartly sunny.No wind84%29.83 "Hg6 mi
7:00 AM77 °FPartly sunny.No wind94%29.80 "Hg6 mi
6:00 AM77 °FPassing clouds.No wind94%29.77 "HgN/A
5:00 AM79 °FPassing clouds.No wind89%29.77 "HgN/A
4:00 AM77 °FPassing clouds.No wind94%29.77 "HgN/A
3:00 AM77 °FPassing clouds.No wind94%29.77 "HgN/A
Weather by CustomWeather, © 2015

See weather overviewHow to use our weather pages